EHI
59 55 51 45 40 38 37 35 29 20 16 17 17 14 9 5 4 3 3 3 2 1 0 0 0 0 0 0 0 0 0 0 0 0 0 0 0 0 0 0 0 0 0
58 53 47 42 39 36 34 32 28 21 17 16 15 13 8 4 3 3 3 3 2 1 0 0 0 0 0 0 0 0 0 0 0 0 0 0 0 0 0 0 0 0 0
55 50 44 40 38 34 31 28 25 20 16 12 11 10 8 4 3 3 3 2 1 0 0 0 0 0 0 0 0 0 0 0 0 0 0 0 0 0 0 0 0 0 0
50 46 42 40 37 33 28 24 21 17 12 9 8 7 6 4 3 3 1 1 0 0 0 0 0 0 0 0 0 0 0 0 0 0 0 0 0 0 0 0 0 0 0
45 43 41 40 37 31 25 22 19 15 9 6 6 5 4 3 3 2 1 0 0 0 1 0 0 0 0 0 0 0 0 0 0 0 0 0 0 0 0 0 0 0 0
37 38 38 36 33 28 24 21 19 14 9 5 4 4 3 3 3 1 0 0 0 0 0 0 0 0 0 0 0 0 0 0 0 0 0 0 0 0 0 0 0 0 0
29 31 31 29 27 25 22 21 18 15 10 6 3 3 2 2 2 1 0 0 0 0 0 0 0 0 0 0 0 0 0 0 0 0 0 0 0 0 0 0 0 0 0
25 25 23 21 20 20 20 19 17 13 10 7 4 3 1 1 1 0 0 0 0 0 0 0 0 0 0 0 0 0 0 0 0 0 0 0 0 0 0 0 0 0 0
22 21 18 15 15 16 17 16 14 11 9 7 6 4 2 0 0 0 0 0 0 0 0 0 0 0 0 0 0 0 0 0 0 0 0 0 0 0 0 0 0 0 0
21 19 15 12 12 14 14 14 12 9 7 7 7 6 3 1 0 0 0 0 0 0 0 0 0 0 0 0 0 0 0 0 0 0 0 0 0 0 0 0 0 0 0
21 18 14 12 12 13 12 12 11 9 7 7 7 6 4 2 1 0 0 0 0 0 0 0 0 0 0 0 0 0 0 0 0 0 0 0 0 0 0 0 0 0 0
19 17 14 14 14 13 12 11 11 10 8 7 7 6 4 3 2 2 1 0 0 0 0 0 0 0 0 0 0 0 0 0 0 0 0 0 0 0 0 0 0 0 0
16 15 14 15 15 14 13 12 11 10 9 8 7 6 4 3 4 4 2 1 0 0 0 0 0 0 0 0 0 0 0 0 0 0 0 0 0 0 0 0 0 0 0
14 15 15 15 14 12 12 13 12 10 9 9 8 7 6 4 4 5 3 1 0 0 0 0 0 0 0 0 0 0 0 0 0 0 0 0 0 0 0 0 0 0 0
13 14 16 15 12 10 10 12 12 11 10 9 9 9 7 6 5 5 4 2 1 1 0 0 0 0 0 0 0 0 0 0 0 0 0 0 0 0 0 0 0 0 0
17 18 18 16 13 11 10 11 12 12 10 10 9 9 8 7 7 7 5 3 3 2 1 0 0 0 0 0 0 0 0 0 0 0 0 0 0 0 0 0 0 0 0
24 24 20 16 14 12 11 11 12 12 10 9 9 8 8 8 7 7 4 3 3 3 1 0 0 0 0 0 0 0 0 0 0 0 0 0 0 0 0 0 0 0 0
22 21 19 16 13 11 10 10 10 10 9 8 7 8 8 7 7 5 3 2 3 3 2 1 0 0 0 0 0 0 0 0 0 0 0 0 0 0 0 0 0 0 0
13 14 16 15 13 11 10 9 8 8 8 7 7 7 7 7 6 3 1 1 2 3 2 1 0 0 0 0 0 0 0 0 0 0 0 0 0 0 0 0 0 0 0
8 10 12 12 10 9 8 8 8 8 9 9 8 6 6 7 5 2 0 0 1 2 2 1 0 0 0 0 0 0 0 0 0 0 0 0 0 0 0 0 0 0 0
6 7 9 8 6 6 6 8 9 8 9 9 8 7 6 5 3 1 0 0 0 1 1 0 0 0 0 0 0 0 0 0 0 0 0 0 0 0 0 0 0 0 0
4 4 5 4 4 6 8 8 8 7 7 7 7 6 5 3 1 0 0 0 0 0 0 0 0 0 0 0 0 0 0 0 0 0 0 0 0 0 0 0 0 0 0
2 3 4 4 4 6 8 8 6 5 5 6 5 4 3 1 0 0 0 0 0 0 0 0 0 0 0 0 0 0 0 0 0 0 0 0 0 0 0 0 0 0 0
1 3 4 4 3 4 5 5 4 4 4 4 3 2 1 0 0 0 0 0 0 0 0 0 0 0 0 0 0 0 0 0 0 0 0 0 0 0 0 0 0 0 0
1 2 3 3 2 2 2 1 1 2 2 2 1 1 0 0 0 0 0 0 0 0 0 0 0 0 0 0 0 0 0 0 0 0 0 0 0 0 0 0 0 0 0
1 2 2 1 1 1 0 0 0 1 1 1 0 0 0 0 0 0 0 0 0 0 0 0 0 0 0 0 0 0 0 0 0 0 0 0 0 0 0 0 0 0 0
Wind_Speed
7 8 10 11 10 9 9 10 9 8 7 5 5 4 4 3 3 3 5 6 5 5 4 3 3 3 3 3 3 2 3 2 2 3 2 2 1 1 3 3 4 5 5
7 8 9 10 10 10 9 9 9 9 8 6 5 4 4 3 3 3 4 5 5 5 4 4 3 3 3 3 3 3 2 1 2 3 3 1 3 2 2 2 3 4 4
11 10 10 9 10 10 10 10 9 9 8 7 5 4 4 3 2 3 3 4 5 5 5 5 4 3 3 3 3 3 4 2 1 2 4 3 3 2 2 2 3 3 3
8 9 9 9 10 10 9 8 9 8 8 8 8 8 6 5 5 4 3 4 4 5 5 5 5 4 3 3 3 3 3 3 2 1 0 2 4 3 1 2 2 3 4
8 9 9 9 9 9 9 8 8 8 7 8 9 8 6 4 4 4 5 4 3 4 5 5 5 4 3 3 3 4 3 3 3 1 1 1 1 2 2 1 2 2 3
6 7 7 7 6 7 7 8 8 8 7 8 8 9 9 8 7 6 5 4 2 3 4 5 5 4 4 4 4 4 4 3 3 2 2 2 2 1 2 2 2 2 3
6 7 7 7 7 8 8 8 9 8 8 8 8 8 9 9 9 7 6 5 3 3 4 4 4 4 4 4 4 4 3 3 3 2 2 1 1 2 2 2 1 1 3
6 7 8 8 8 8 8 8 9 8 8 8 8 7 8 6 5 6 5 5 4 4 5 5 5 5 4 4 3 2 2 2 2 2 2 1 0 1 2 2 2 0 2
7 7 7 7 7 7 8 9 9 8 8 8 8 7 7 6 6 6 5 4 4 4 6 6 5 4 4 4 4 2 2 2 2 2 2 1 0 1 1 1 2 3 1
7 7 7 6 6 6 7 8 8 8 7 7 7 7 6 6 6 6 6 5 5 4 6 5 5 5 4 4 4 2 2 2 2 1 1 1 0 1 1 1 1 2 3
8 8 7 7 7 6 7 8 8 7 7 7 6 7 6 6 6 6 6 5 4 5 6 5 5 5 4 4 4 3 2 2 1 1 2 1 1 1 2 2 2 1 2
8 8 8 8 7 7 7 7 8 8 8 7 7 7 6 6 6 6 6 5 5 5 5 5 4 4 4 4 4 3 3 3 2 2 2 2 2 3 2 2 2 2 1
7 8 8 8 8 8 7 7 7 8 7 8 8 7 7 7 7 6 6 6 6 5 5 5 5 4 4 4 3 3 4 4 3 3 3 2 3 3 3 3 3 2 2
8 8 9 8 8 8 8 8 7 7 8 8 8 8 8 8 7 6 6 6 6 6 6 5 5 4 4 4 4 5 6 6 6 6 5 5 4 3 3 3 3 3 3
8 9 10 8 8 8 8 8 8 7 8 8 8 8 7 7 7 6 6 6 6 7 6 6 6 5 5 4 5 6 6 7 7 6 6 6 8 8 5 4 3 3 3
7 7 9 10 10 9 9 8 8 8 8 8 7 7 7 7 7 7 7 7 8 8 8 8 7 7 5 6 9 8 6 6 7 6 5 7 8 9 10 11 9 7 4
6 6 7 8 9 9 9 9 9 8 8 8 7 7 8 8 8 8 8 9 9 9 9 8 9 8 7 11 12 12 8 7 7 6 5 6 7 8 6 8 11 11 12
4 4 6 6 6 6 6 7 8 8 8 8 8 7 8 8 8 9 9 9 9 10 9 9 8 8 9 13 14 14 10 9 8 7 7 6 6 7 6 6 7 6 6
2 2 4 5 5 6 7 7 8 8 8 8 8 8 9 10 10 10 11 10 11 11 9 8 9 10 9 12 13 12 8 8 8 7 6 6 6 9 9 7 6 6 6
3 3 3 5 6 6 7 8 8 8 9 8 8 8 9 10 11 11 11 10 11 11 11 10 9 10 9 12 13 11 7 7 5 5 5 7 6 7 8 5 5 5 5
4 4 5 5 4 5 8 9 9 8 8 10 10 10 10 11 11 11 10 11 12 12 11 11 9 9 10 12 13 10 5 5 4 3 2 3 6 7 7 5 3 3 3
5 5 6 6 4 5 9 11 10 9 10 12 12 11 10 10 11 11 10 11 12 13 11 10 9 7 7 9 11 13 10 7 5 3 2 2 5 7 7 5 6 7 6
4 5 7 8 6 5 8 12 11 11 13 14 13 12 12 11 10 11 11 10 9 9 8 8 7 5 5 6 11 11 11 10 5 2 4 6 8 7 6 9 10 7 5
5 6 8 9 8 8 9 11 11 12 14 15 13 12 12 12 10 8 7 7 7 8 7 7 6 5 4 4 4 5 5 7 6 4 6 9 11 8 7 7 6 5 3
6 7 9 10 10 10 11 11 11 13 15 15 13 12 12 11 11 10 8 7 5 6 8 6 6 6 4 3 4 4 3 3 3 4 5 5 5 5 5 4 4 4 4
8 9 11 11 11 11 12 11 10 13 15 13 12 10 9 9 9 11 10 15 12 13 13 10 8 5 6 6 7 7 7 8 8 7 5 4 4 4 3 3 3 3 3
Wind_Direction
156 152 154 157 157 160 162 162 163 162 154 151 148 141 147 147 148 154 153 147 142 136 131 132 129 126 132 146 140 123 107 99 110 88 52 3 350 203 207 196 189 198 203
148 153 154 158 165 170 171 166 167 163 161 161 153 147 145 149 155 154 147 147 143 141 145 139 135 131 124 121 120 115 110 89 121 125 110 39 342 317 235 202 200 204 201
164 163 164 165 168 173 177 174 171 168 167 158 139 128 116 109 117 140 150 154 149 146 145 142 136 136 132 139 140 132 128 122 72 132 142 146 211 281 309 242 214 204 206
164 168 168 171 177 179 175 169 168 170 168 158 155 157 158 163 173 166 159 151 148 149 147 141 137 135 135 139 144 131 127 124 102 44 96 160 158 154 277 315 271 226 218
172 173 173 174 174 172 172 172 166 169 166 163 162 162 164 163 152 145 146 148 149 151 148 141 133 128 129 135 126 115 111 120 131 126 99 74 74 113 140 243 290 282 249
177 170 164 156 157 162 166 169 169 172 169 168 166 165 164 158 152 154 157 157 153 152 152 140 135 133 133 140 137 127 124 123 120 118 115 128 132 173 157 188 238 255 268
170 167 159 159 162 165 165 166 169 174 173 169 168 168 164 162 164 166 165 161 161 162 169 147 142 141 147 147 136 125 125 132 128 132 131 135 164 175 157 153 200 258 287
175 172 168 167 167 167 165 165 171 173 173 170 168 163 159 161 166 167 162 167 171 171 165 154 149 148 148 143 136 130 137 132 132 124 122 117 132 134 150 159 150 99 321
172 172 164 164 164 163 166 168 168 168 170 166 159 160 159 160 164 161 157 163 165 164 159 157 152 151 148 142 136 128 141 138 138 132 121 120 107 76 100 126 144 149 190
170 166 163 166 166 161 158 160 160 161 158 162 167 165 161 158 154 150 156 160 162 154 155 158 156 153 149 145 135 131 137 133 140 143 120 94 62 57 62 76 93 138 162
171 165 164 161 155 150 154 155 157 155 160 166 167 162 160 152 145 147 152 152 150 153 159 161 159 156 153 149 142 151 145 141 132 107 104 73 60 54 39 54 61 69 126
168 164 158 148 148 151 156 161 164 166 171 171 166 165 162 150 147 149 150 146 144 147 148 147 146 148 144 142 145 153 132 124 119 95 84 58 70 55 40 48 43 39 56
158 159 160 159 162 162 159 163 172 174 174 169 166 166 162 156 155 153 148 143 139 135 131 128 127 123 115 111 121 123 108 99 91 85 83 62 73 62 52 51 42 30 36
168 166 168 168 169 166 165 167 173 173 169 166 166 166 167 162 155 148 141 136 131 126 120 113 110 106 98 94 95 98 95 90 81 76 74 65 67 69 61 55 40 37 35
170 176 173 170 172 171 169 169 171 168 165 162 165 168 162 152 144 139 133 126 120 116 111 105 95 90 92 96 107 105 104 100 90 78 72 69 69 65 61 64 50 50 46
174 177 175 171 177 178 173 169 166 163 156 158 162 155 148 143 139 136 128 119 110 101 96 93 91 81 80 90 99 104 102 101 99 91 78 71 55 54 55 58 57 54 52
167 168 179 182 180 177 169 170 167 155 150 152 151 148 144 138 134 130 120 116 110 105 98 92 88 83 74 83 92 95 95 94 91 87 78 70 55 45 46 50 49 43 43
166 171 176 174 176 169 163 160 154 149 148 148 148 143 137 131 126 122 117 113 108 103 99 93 89 83 73 81 88 90 87 85 82 81 80 75 51 41 48 52 46 35 24
124 161 164 151 156 156 151 147 145 142 141 143 142 138 134 129 126 122 120 116 109 103 97 93 88 83 71 74 83 89 89 86 78 77 76 76 62 46 53 56 43 25 6
75 103 117 122 139 149 141 137 138 136 138 135 128 123 122 122 122 121 117 113 109 107 101 90 82 82 75 71 79 86 95 94 86 69 58 59 57 48 56 61 50 26 351
78 97 110 117 131 137 134 130 125 125 124 117 113 110 109 110 114 113 114 115 113 108 101 94 82 75 71 66 70 78 89 100 94 74 41 20 34 46 53 61 61 26 8
87 101 110 109 107 120 129 125 121 119 113 108 104 102 102 105 107 109 109 112 115 111 106 98 83 66 58 59 64 68 74 83 88 66 19 7 35 52 55 57 50 42 43
98 101 108 101 92 98 117 119 117 116 110 103 100 98 94 91 95 102 108 109 110 111 108 102 94 76 55 48 55 61 62 61 65 45 44 56 58 54 47 46 47 45 43
100 103 103 101 94 91 95 105 110 111 108 105 101 98 95 88 79 79 88 100 107 112 111 109 104 90 66 48 39 42 45 42 43 36 43 53 57 58 51 43 40 39 40
95 97 101 101 99 97 96 99 105 107 105 103 101 96 92 93 86 75 65 80 80 115 122 120 122 115 94 60 69 64 44 41 50 58 50 47 45 44 38 34 28 21 18
97 98 98 99 97 96 93 93 100 107 109 107 105 104 103 100 100 97 80 57 73 87 97 109 112 96 105 95 67 57 62 68 78 77 63 54 51 52 43 34 16 5 360